User: anonymous   Login
Location: Mt. Cuba Astronomical Observatory
(39.8100°N, 75.6300°W)
Time: 20:40:08
(UTC-04:00)
Language:

Cosmos 2058 - Orbit

View from above orbital plane
View from above orbital plane
View from above satellite
View from above satellite

Ground track
Ground track

The orbit data is extracted from the following two-line orbital elements,

1 20465U 90010A   16207.58012716  .00000427  00000-0  34552-4 0  9999
2 20465  82.4885 201.8127 0014536 319.3981  40.6156 14.97244062436462
Epoch (UTC): 25 July 2016 13:55:22
Eccentricity: 0.0014536
inclination: 82.4885°
perigee height: 565 km
apogee height: 585 km
right ascension of ascending node: 201.8127°
argument of perigee: 319.3981°
revolutions per day: 14.97244062
mean anomaly at epoch: 40.6156°
orbit number at epoch: 43646

The dashed part of the orbit path shows where the satellite is in the earth's shadow,  

DLR